Starlink 3893

operational
NORAD ID: 52579 Int'l Des: 2022-051 Owner: SPXS Country: US Constellation: starlink
LEOCIRCULAR

Über Starlink 3893

Beschreibung wird geladen...

Live-Position

3D-Globus wird geladen...

Nächste Überflüge

Höhenverlauf

Altitude vs Time

uPlot chart will show altitude changes over time

Zweizeiliger Elementsatz

1 52579U 22051AV 25308.26381090 .00002211 00000-0 15698-3 0 9993
2 52579 53.2177 337.1788 0001235 84.9663 275.1470 15.08833915192448
Epoch: 4. Nov. 2025 • Age: 9 hours

Aktueller Status

Höhe 540.7 km
Geschwindigkeit 7.60 km/s
Subsatellitenpunkt 27.96°N, 135.53°W
Startdatum 13. Mai 2022
Alter 3.4 years
Typ internet

Technische Details

Klassifizierung Payload
Masse 297.00 kg
Trockenmasse 275.00 kg
Gesamtmasse 297.00 kg
Länge 0.20 m
Durchmesser 2.80 m
Spannweite 9.00 m
Form Box + pan
Hersteller SPXS
Bus-Typ Starlink
Phasenstatus In Orbit
Besitzer/Staat SPXS/US

Große Konstellationen

Loading constellations...